Location: Newark
(48.1500°N, 2.9667°W)
Time: 02:35:53
(UTC+00:00)

A-11 Canister half - Pass Details

Date: 28 January 2020
Orbit: 1524 x 1684 km, 47.3° (Epoch: 26 February)

Event Time Altitude Azimuth Distance (km) Brightness Sun altitude
Rises 17:10:32 0° 230° (SW) 4,664 13.6 -1.8°
Reaches altitude 10° 17:13:36 10° 227° (SW) 3,687 12.6 -2.2°
Maximum altitude 17:22:37 58° 151° (SSE) 1,754 9.4 -3.6°
Drops below altitude 10° 17:31:52 10° 76° (ENE) 3,777 10.4 -5.0°
Enters shadow 17:33:12 - 74° (ENE) 4,198 10.6 -5.2°
Sets 17:35:03 0° 73° (ENE) 4,785 - -5.5°
